Grizzly Air Cargo 5285


CYEG
Edmonton International Airport
Edmonton, CA
KDEN
Denver International Airport
Denver, US

Activity Log

Date Flight Route Aircraft Duration
No Flights Yet

Route Details

Aircraft Information
Primary: Boeing 737-800BCF
Backup: Boeing 727-200F
Route Data
Distance: 887nm
Sched. Duration: 2h 45m
Avg. Duration: 0h 00m (-245m)
Times Flown: 0
Recm'd Route: OMROD TOVIS YEA BIL OPPEE MOLTN3
Planned Altitude: 35,000ft
Origin Wx: CYEG 171000Z 18007KT 20SM OVC080 M03/M08 A2988 RMK AS8 VIRGA ALQDS SLP154
Dest. Wx: KDEN 170953Z 17007KT 10SM BKN090 OVC110 M03/M08 A3010 RMK AO2 SLP197 T10331078 $
Notes:

Financial History
Total Freight: 0lbs
Average Load: 0lbs/flt
Fuel Used: 0lbs
Avg. Fuel Used: 0lbs/flt
Fuel Expense: $0
Avg. Fuel Expense: $0
Avg. Fuel Cost: $0/lbs
Total Gross Income: $0
Pilot Pay: $0
Total Expenses: $0
Total Revenue: $0
Average Revenue: $0